User: anonymous   Login
Location: Unspecified
(0.0000°N, 0.0000°E)
Time: 23:06:10
(UTC+00:00)
Language:

COSMOS 2409 - Orbit

View from above orbital plane
View from above orbital plane
View from above satellite
View from above satellite

Ground track
Ground track

The orbit data is extracted from the following two-line orbital elements,

1 28380U 04028A   21125.38543203  .00000066  00000-0  51449-4 0  9993
2 28380  82.9641  18.5128 0040713  78.1544 282.4178 13.76090918843047
Epoch (UTC): 05 May 2021 09:15:01
Eccentricity: 0.0040713
inclination: 82.9641°
perigee height: 948 km
apogee height: 1008 km
right ascension of ascending node: 18.5128°
argument of perigee: 78.1544°
revolutions per day: 13.76090918
mean anomaly at epoch: 282.4178°
orbit number at epoch: 84304

The dashed part of the orbit path shows where the satellite is in the earth's shadow,  

DLR